This demonstration page uses our WeatherBlox Daily Observations layout. Learn more.

Left ArrowRight Arrow

41.12389, -100.76542

Hourly Observations for February 2, 2017

Temp ( °F °C ) Dew Point ( °F °C ) Humidity (%) Winds ( mph kmh ) Pressure ( in mb ) Visibility ( mi km ) Precip ( " mm )
12:53 am 00:53 Partly Cloudy 17 -8.3 11 -11.7 77 77 NNW 5 7 30.57 1035 10 16 0.00 0.00
1:53 am 01:53 Cloudy 17 -8.3 11 -11.7 77 77 N 6 9 30.57 1035 10 16 0.00 0.00
2:53 am 02:53 Mostly Clear 15 -9.4 8 -13.3 74 74 N 7 11 30.59 1036 10 16 0.00 0.00
3:53 am 03:53 Clear 16 -8.9 7 -13.9 67 67 N 8 13 30.57 1035 10 16 0.00 0.00
4:53 am 04:53 Clear 15 -9.4 4 -15.6 61 61 N 10 17 30.57 1035 10 16 0.00 0.00
5:53 am 05:53 Mostly Cloudy 14 -10 4 -15.6 64 64 NNW 6 9 30.59 1036 10 16 0.00 0.00
6:53 am 06:53 Clear 12 -11.1 3 -16.1 67 67 N 6 9 30.60 1036 10 16 0.00 0.00
7:53 am 07:53 Cloudy 12 -11.1 3 -16.1 67 67 N 5 7 30.61 1037 10 16 0.00 0.00
8:53 am 08:53 Mostly Cloudy 13 -10.6 4 -15.6 67 67 Calm 30.61 1037 10 16 0.00 0.00
9:53 am 09:53 Cloudy 15 -9.4 4 -15.6 61 61 NE 3 6 30.62 1037 10 16 0.00 0.00
10:53 am 10:53 Cloudy 16 -8.9 4 -15.6 59 59 Calm 30.61 1037 10 16 0.00 0.00
11:53 am 11:53 Cloudy 19 -7.2 4 -15.6 51 51 NNE 3 6 30.58 1036 10 16 0.00 0.00
12:53 pm 12:53 Cloudy 20 -6.7 4 -15.6 50 50 Calm 30.55 1034 10 16 0.00 0.00
1:53 pm 13:53 Cloudy 21 -6.1 4 -15.6 47 47 VRB 5 7 30.51 1033 10 16 0.00 0.00
2:53 pm 14:53 Cloudy 21 -6.1 5 -15 50 50 Calm 30.49 1032 10 16 0.00 0.00
3:53 pm 15:53 Cloudy 22 -5.6 6 -14.4 50 50 SE 3 6 30.47 1032 10 16 0.00 0.00
4:53 pm 16:53 Cloudy 22 -5.6 6 -14.4 50 50 E 7 11 30.46 1032 10 16 0.00 0.00
5:53 pm 17:53 Cloudy 22 -5.6 7 -13.9 52 52 E 7 11 30.46 1031 10 16 0.00 0.00
6:53 pm 18:53 Cloudy 21 -6.1 7 -13.9 54 54 ESE 9 15 30.46 1031 10 16 0.00 0.00
7:35 pm 19:35 Cloudy with Light Snow 19 -7 10 -12 68 68 SE 8 13 30.50 1033 3 4 0.00 0.00
7:50 pm 19:50 Cloudy with Light Snow 19 -7 12 -11 73 73 ESE 9 15 30.50 1033 3 5 0.00 0.00
7:53 pm 19:53 Cloudy with Light Snow 19 -7.2 13 -10.6 77 77 SE 8 13 30.48 1032 3 4 0.00 0.03
8:15 pm 20:15 Cloudy with Light Snow 19 -7.2 14 -10 81 81 SE 7 11 30.53 1034 3 5 0.00 0.03
8:37 pm 20:37 Cloudy with Light Snow 19 -7.2 14 -10 81 81 SE 7 11 30.53 1034 2 3 0.01 0.25
8:48 pm 20:48 Cloudy with Light Snow 19 -7 14 -10 79 79 ESE 8 13 30.50 1033 2 3 0.00 0.00
8:53 pm 20:53 Cloudy with Light Snow 19 -7.2 14 -10 81 81 ESE 8 13 30.47 1032 2 3 0.01 0.25
9:07 pm 21:07 Cloudy with Light Snow 19 -7.2 14 -10 81 81 SE 8 13 30.53 1034 2 3 0.00 0.03
9:53 pm 21:53 Cloudy with Light Snow 19 -7.2 15 -9.4 84 84 E 8 13 30.48 1032 2 3 0.02 0.51
10:19 pm 22:19 Cloudy with Light Snow 19 -7 16 -9 86 86 E 8 13 30.56 1035 2 3 0.00 0.00
10:31 pm 22:31 Cloudy with Light Snow 19 -7 16 -9 86 86 E 7 11 30.56 1035 2 3 0.00 0.00
10:49 pm 22:49 Cloudy with Light Snow 19 -7 16 -9 86 86 E 8 13 30.56 1035 1 2 0.00 0.00
10:53 pm 22:53 Cloudy with Light Snow 19 -7.2 15 -9.4 84 84 E 9 15 30.49 1033 1 2 0.02 0.51
11:03 pm 23:03 Cloudy with Light Snow 19 -7 16 -9 86 86 E 8 13 30.56 1035 2 3 0.00 0.00
11:10 pm 23:10 Cloudy with Light Snow 19 -7 16 -9 86 86 E 7 11 30.56 1035 3 4 0.00 0.00
11:25 pm 23:25 Cloudy with Light Snow 19 -7 16 -9 86 86 E 6 9 30.59 1036 3 5 0.00 0.00
11:38 pm 23:38 Cloudy with Light Snow 19 -7 16 -9 86 86 E 8 13 30.59 1036 2 3 0.00 0.00
11:46 pm 23:46 Cloudy with Light Snow 19 -7 16 -9 86 86 E 7 11 30.59 1036 2 3 0.00 0.00
11:53 pm 23:53 Cloudy with Light Snow 19 -7.2 15 -9.4 84 84 E 7 11 30.51 1033 2 3 0.02 0.51
11:59 pm 23:59 Cloudy with Light Snow 19 -7 16 -9 86 86 E 7 11 30.59 1036 2 3 0.00 0.00

Powered by AerisWeather